"Pseudo-MPEC" for 2002-048A = NORAD 27540 = Integral

Created 2017 Sep 25 13:42:07 UT using Find_Orb

Click here for earlier comments, observations and elements for this object.

Astrometry:
2002-048A     C2016 05 16.41592 18 53 29.90 +51 41 58.4         x15.5 V D0546703
2002-048A     C2016 05 16.41993 18 53 47.82 +51 43 32.5         x15.6 V D0546703
2002-048A     C2016 05 16.42396 18 54 05.59 +51 45 01.2         x15.2 V D0546703
2002-048A     C2016 06 03.44675 17 13 15.03 +45 57 22.6         x16.9 V D0547703
2002-048A     C2016 06 03.45277 17 13 50.64 +45 59 57.0         x16.3 V D0547703
2002-048A     C2016 06 03.45577 17 14 08.55 +46 01 10.3         x17.3 V D0547703
2002-048A     C2016 10 07.10346 18 38 59.72 +51 20 44.7         x15.6 V D0551703
2002-048A     C2016 10 07.10951 18 39 28.95 +51 20 30.5         x15.8 V D0551703
2002-048A     C2016 10 07.11558 18 39 58.94 +51 20 08.4         x15.3 V D0551703
2002-048A     C2016 11 05.10175 17 50 06.17 +49 12 07.9         x17.7 V D0552703
2002-048A     C2016 11 05.11384 17 51 26.65 +49 10 29.5         x18.0 V D0552703
2002-048A     C2016 11 05.11988 17 52 08.30 +49 09 34.0         x17.7 V D0552703
2002-048A     C2016 11 05.13087 17 53 26.42 +49 07 42.6         x17.6 V D0552703
2002-048A     C2016 11 05.13114 17 53 28.45 +49 07 40.1         x17.7 V D0552703
2002-048A     C2016 11 05.13142 17 53 30.31 +49 07 36.8         x17.8 V D0552703
2002-048A     C2016 11 05.13168 17 53 32.26 +49 07 33.9         x18.1 V D0552703
2002-048A     C2017 06 2979AstrometryN,e!@cRo7l\DTNg(we^p^-EW[hhP[Yi0?Te_q=.cT08
2002-048A     C2017 06 29djasN!p:_@Rl?/M.wredacted;XC0G-OseeVMhMjwj.AR'n(dtA+T08
2002-048A     C2017 06 29L3J\:23r0Dt=M*j15mwhTX]4:!/[`[Heqcw+5a)cY0m#%lsNEOCPT08
2002-048A     C2017 07 21.41547 18 19 55.33 +50 46 02.4          15.3 o D0557T05
2002-048A     C2017 07 21.41645 18 19 59.05 +50 45 52.1          15.3 o D0557T05
2002-048A     C2017 07 21.42230 18 20 21.64 +50 44 45.1          15.3 o D0557T05
2002-048A     C2017 07 21.42280 18 20 23.54 +50 44 39.2          15.2 o D0557T05
2002-048A     C2017 09 12.26704 17 23 55.08 +49 58 38.3          17.4 o D0557T05
2002-048A     C2017 09 12.27352 17 24 19.59 +49 57 50.9          17.3 o D0557T05
2002-048A     C2017 09 12.28005 17 24 45.00 +49 56 54.1          17.3 o D0557T05
2002-048A     C2017 09 18.30494 19 16 34.12 +49 35 52.2          16.9 o D0557T08
2002-048A     C2017 09 18.30632 19 16 42.72 +49 34 53.7          16.7 o D0557T08
2002-048A     C2017 09 25.16112 16 21 43.87 +46 27 13.2          17.9 VqNEOCPG96
2002-048A     C2017 09 25.17351 16 23 11.20 +46 27 07.9                qNEOCPG96

Station data:
(703) Catalina Sky Survey  (N32.417003 W110.732640)  US/Arizona.  Observers
   E. J. Christensen, A. R. Gibbs, A. D. Grauer, R. E. Hill, J. A. Johnson,
   R. A. Kowalski, S. M. Larson, F. C. Shelly. 0.68 m Schmidt + CCD.
(G96) Mt. Lemmon Survey  (N32.442751 W110.788720)  US/Arizona.  Observers E.
   J. Christensen, A. R. Gibbs, A. D. Grauer, R. E. Hill, J. A. Johnson, R.
   A. Kowalski, S. M. Larson, F. C. Shelly. 1.5-m reflector + CCD.
(T05) ATLAS-HKO, Haleakala  (N20.707571 W156.257010)  US/Hawaii.  Observers
   L. Denneau, A. Heinze, H. Weiland, B. Stalder, J. Tonry, A. Sherstyuk.
   Measurers L. Denneau, A. Heinze, J. Tonry. 0.5-m f/2.0 Schmidt + CCD.
(T08) ATLAS-MLO, Mauna Loa  (N19.535770 W155.576400)  US/Hawaii.

Orbital elements:  2002-048A = NORAD 27540 = Integral
   Perigee 2017 Sep 24.266797 +/- 0.000267 TT =  6:24:11 (JD 2458020.766797)
Epoch 2017 Sep 25.0 TT; AMR 0.0033229 +/- 0.00507 m2/kg      Gray
M  99.20756 +/- 0.036               (J2000 equator)
n 135.30709748 +/- 0.000134         Peri.  263.49192 +/- 0.007
a 81106.6482 +/- 0.0534             Node   183.37994 +/- 0.0041
e   0.8301336 +/- 3.49e-5           Incl.   49.51856 +/- 0.0006
P3831.21m/2.661d           H 28.6   G  0.15   U  6.8
q 13777.2919 +/- 2.83    Q 148436.004 +/- 2.86
14 of 30 observations 2017 June 29-Sept. 25; mean residual 7".059
Residuals in arcseconds: 
160516 703(5374+ 1203+)   161105 703(1462+  502+)   170721 T05 2.91+ 13.2+
160516 703(5378+ 1199+)   161105 703(1461+  499+)   170721 T05 3.19+ 13.1+
160516 703(5380+ 1194+)   161105 703(1457+  491+)   170721 T05 2.73+ 13.3+
160603 703(5934+ 3352+)   161105 703(1458+  492+)   170912 T05 .603+ 7.34-
160603 703(5901+ 3324+)   161105 703(1456+  491+)   170912 T05 7.5m+ 7.94-
160603 703(5885+ 3309+)   161105 703(1457+  491+)   170912 T05 .835- 8.07-
161007 703(2377+  448+)   170629 T08 1.67- 1.60-    170918 T08 .305- 11.1-
161007 703(2379+  444+)   170629 T08 4.05- 2.24-    170918 T08 .389- 11.0-
161007 703(2383+  442+)   170629 T08 6.44- 2.86-    170925 G96 11.6+ 2.08+
161105 703(1467+  510+)   170721 T05 3.08+ 13.2+    170925 G96 4.59+ .483+

Ephemerides (geocentric):
Date (UTC) HH   RA              Dec         delta   r     elong  mag " sig PA
---- -- -- --  ------------   ------------  ------ ------ -----  --- ---- ---
2017 09 25 00  16 09 19.188   +45 06 04.36   127628 1.0027  70.3 17.4  7.5  75
2017 09 25 01  16 15 50.521   +45 34 35.02   130546 1.0027  71.5 17.4  6.1  78
2017 09 25 02  16 22 11.533   +46 00 34.04   133220 1.0027  72.7 17.3  4.9  81
2017 09 25 03  16 28 23.716   +46 24 18.24   135657 1.0027  73.8 17.3  3.8  86
2017 09 25 04  16 34 28.379   +46 46 01.53   137865 1.0027  74.9 17.3  2.9  93
2017 09 25 05  16 40 26.680   +47 05 55.45   139851 1.0027  76.0 17.3  2.2 102
2017 09 25 06  16 46 19.660   +47 24 09.62   141621 1.0027  77.0 17.2  1.6 116
2017 09 25 07  16 52 08.263   +47 40 52.05   143178 1.0027  78.0 17.2  1.2 137
2017 09 25 08  16 57 53.355   +47 56 09.46   144527 1.0027  79.0 17.2  1.1 165
2017 09 25 09  17 03 35.743   +48 10 07.42   145672 1.0027  80.0 17.1  1.2   9
2017 09 25 10  17 09 16.185   +48 22 50.52   146615 1.0027  80.9 17.1  1.4  26
2017 09 25 11  17 14 55.404   +48 34 22.52   147359 1.0027  81.9 17.1  1.6  36
2017 09 25 12  17 20 34.093   +48 44 46.41   147906 1.0027  82.8 17.0  1.9  43
2017 09 25 13  17 26 12.933   +48 54 04.50   148256 1.0027  83.7 17.0  2.1  48
2017 09 25 14  17 31 52.591   +49 02 18.45   148411 1.0027  84.7 17.0  2.2  51
2017 09 25 15  17 37 33.736   +49 09 29.32   148371 1.0027  85.6 16.9  2.3  54
2017 09 25 16  17 43 17.042   +49 15 37.60   148136 1.0027  86.5 16.9  2.4  55
2017 09 25 17  17 49 03.200   +49 20 43.15   147705 1.0027  87.5 16.8  2.4  56
2017 09 25 18  17 54 52.922   +49 24 45.26   147078 1.0027  88.4 16.8  2.3  57
2017 09 25 19  18 00 46.951   +49 27 42.60   146252 1.0027  89.3 16.7  2.2  56